RH
22 24 32 20 18 21 22 21 22 20 26 32 37 38 39 45 43 35 60 80 80 92 94 84 78 76 91 96 80 76 71 68 63 64 58 61 74 84 88 88 87 86 87 86 87 88 89 92 94
29 34 26 22 21 21 19 21 20 21 24 37 39 41 48 45 54 56 62 69 75 96 95 91 69 66 90 96 94 75 65 58 61 69 84 76 81 88 86 81 85 86 86 86 86 87 90 93 92
22 27 20 24 28 20 20 20 17 17 28 38 34 43 51 45 56 64 71 64 83 100 98 95 80 80 92 92 92 76 65 65 57 71 80 84 84 86 78 76 84 87 87 88 88 87 84 49 43
21 20 21 23 23 21 20 16 20 20 37 43 40 36 39 44 59 70 69 68 93 99 100 98 71 77 69 98 99 76 68 69 60 68 76 82 81 81 79 81 88 86 84 89 93 74 42 40 39
24 21 23 24 23 20 20 19 19 22 34 43 43 36 42 47 64 68 69 71 76 92 97 94 81 74 64 84 94 83 80 68 66 52 67 77 83 86 84 84 83 85 88 90 92 56 44 39 45
22 22 24 22 21 19 18 19 23 32 37 42 48 47 43 69 74 70 70 70 71 82 90 88 89 70 69 74 87 87 71 60 87 71 53 75 79 80 79 79 85 89 88 77 69 59 47 43 50
22 23 23 23 23 23 18 25 37 29 37 41 45 47 42 62 86 76 75 73 84 80 89 72 92 85 67 68 65 64 58 61 85 81 73 73 80 78 78 86 91 83 70 62 66 61 51 49 51
24 23 30 27 24 19 16 26 34 34 26 54 46 45 44 63 85 84 79 84 87 100 99 91 92 69 80 72 75 55 62 69 79 74 85 82 79 82 86 82 83 59 54 58 62 62 55 53 54
22 25 27 24 25 18 16 21 33 44 45 53 54 55 56 95 90 84 91 91 85 98 100 99 100 99 78 79 73 66 62 82 84 89 90 86 94 93 82 85 63 53 58 61 63 61 59 57 57
22 27 25 21 19 18 17 21 19 44 50 47 52 56 85 94 91 84 88 85 93 96 96 99 96 99 93 84 76 74 92 96 94 88 87 95 99 91 88 74 56 56 62 66 66 63 60 66 79
26 24 24 20 18 18 19 20 28 42 35 38 37 45 75 93 87 83 85 90 88 91 91 94 100 94 95 91 92 93 98 99 84 85 86 91 100 95 81 71 57 59 66 86 75 68 78 74 69
26 23 22 17 18 23 22 25 38 44 25 58 48 66 67 73 75 82 89 93 98 94 95 95 96 97 99 93 100 100 84 84 90 81 86 89 100 94 83 70 56 54 82 88 89 75 57 46 40
24 20 19 18 19 24 25 27 29 40 39 64 74 73 70 76 84 92 95 99 98 98 99 91 98 98 98 100 99 100 92 73 87 87 94 78 97 90 76 56 53 51 48 54 64 63 56 40 39
23 22 20 23 23 23 24 23 40 24 46 78 83 81 77 79 78 85 82 96 100 95 98 96 98 98 95 96 96 100 99 90 88 89 83 86 90 79 63 51 50 46 47 55 51 47 45 39 34
26 30 27 26 23 22 24 29 38 29 71 75 82 88 76 75 73 74 85 97 99 100 100 100 100 99 97 98 100 100 100 99 98 98 89 94 87 65 64 52 52 49 46 46 44 43 40 37 35
31 32 30 25 25 24 28 26 26 34 65 66 76 83 79 74 70 72 95 98 100 99 100 100 100 99 96 100 100 100 100 100 99 98 98 98 75 60 56 63 56 52 48 47 45 42 43 40 43
38 26 34 26 26 28 31 30 25 52 60 58 73 75 74 75 75 78 98 99 99 100 100 100 100 100 100 100 99 100 100 92 96 100 85 77 65 48 49 56 62 57 58 52 51 46 42 38 46
33 39 40 32 28 28 27 28 24 27 48 50 67 75 74 73 74 76 99 99 99 100 100 100 100 100 100 99 100 100 100 97 92 93 75 63 64 49 52 60 59 59 60 55 52 48 42 43 40
33 35 34 33 29 29 25 26 24 22 35 48 65 74 76 76 70 79 95 99 100 100 99 100 100 99 99 100 97 100 100 95 88 81 56 64 64 63 66 55 54 59 64 57 54 47 43 44 40
35 35 36 32 28 31 29 27 22 25 28 36 49 68 70 76 75 76 88 100 99 99 100 100 100 100 100 98 96 94 97 85 82 77 64 62 59 65 73 65 53 59 65 60 56 54 50 50 41
39 40 39 36 31 30 31 31 27 24 38 45 55 56 65 74 74 74 85 95 100 100 100 100 99 100 98 98 95 95 95 93 93 87 75 64 53 52 55 73 56 56 58 63 62 59 52 58 47
38 34 35 37 37 36 32 37 32 25 24 32 53 70 71 73 73 70 74 91 95 100 99 100 100 100 99 87 83 88 92 94 86 79 65 56 52 53 57 59 56 50 56 65 62 64 60 59 57
36 33 36 36 41 41 36 41 33 35 30 25 26 61 69 69 73 71 68 78 92 98 100 100 100 100 98 94 86 81 84 87 81 72 62 57 47 50 49 60 63 65 60 59 67 70 70 64 64
34 36 36 44 46 55 44 40 34 32 29 25 30 42 64 70 70 68 68 78 85 96 99 100 100 99 94 91 84 78 80 80 70 71 70 56 49 52 68 62 55 54 60 71 77 78 76 73 71
36 37 44 56 60 50 40 46 33 31 27 27 25 27 61 66 70 71 71 72 81 91 95 98 99 99 93 86 82 79 81 80 74 65 68 68 73 75 69 73 73 70 65 63 71 77 84 84 82
38 36 42 47 53 42 58 53 36 33 28 30 32 30 48 65 67 67 69 72 78 85 89 91 91 91 96 94 88 81 78 79 77 72 66 70 70 72 70 62 61 60 62 65 66 71 71 80 82
37 44 30 39 57 54 44 49 36 31 29 28 25 29 38 57 65 65 66 74 80 90 90 93 92 93 96 95 92 90 84 78 74 73 72 73 70 72 71 61 58 58 62 63 67 71 71 77 80
27 33 47 48 48 44 44 52 32 31 25 24 24 28 40 53 62 63 65 70 76 85 96 97 97 96 98 96 94 90 88 84 80 80 82 81 79 78 75 70 68 73 68 69 73 74 77 93 91
33 33 35 40 52 43 42 42 42 32 26 28 26 29 32 47 56 59 61 66 72 80 88 98 99 98 94 92 93 92 90 90 87 83 80 80 81 82 80 80 76 67 72 65 76 85 94 99 99
29 34 31 42 40 59 48 36 29 35 31 34 31 27 27 42 50 56 57 62 68 76 81 85 92 91 89 88 89 91 92 92 90 88 83 79 76 78 77 80 86 90 85 84 89 96 100 100 100
Wind_Speed
5 4 2 3 2 1 0 3 2 3 3 3 2 4 4 4 5 5 1 12 10 14 22 27 32 30 31 36 43 45 44 43 42 41 41 39 38 37 36 36 34 34 32 30 29 28 27 26 26
6 4 4 3 1 1 1 2 6 7 4 1 2 3 3 5 4 5 3 9 11 17 25 25 32 33 35 38 41 44 43 42 43 39 37 38 38 36 36 35 35 35 33 31 30 29 27 25 26
4 2 2 3 2 1 3 5 8 4 5 3 3 2 2 4 1 1 2 4 10 17 26 27 34 35 33 38 41 43 43 45 43 39 36 37 37 37 37 37 36 35 33 31 30 28 27 28 27
3 2 3 1 3 4 4 5 4 6 2 3 1 5 4 6 4 3 2 4 14 22 27 35 38 36 35 35 39 43 46 44 42 41 39 38 37 37 37 36 35 35 33 31 28 29 30 29 28
4 1 2 1 3 4 6 6 3 4 4 3 5 4 5 2 7 4 3 5 13 23 26 37 38 37 39 41 40 45 46 44 43 41 39 39 38 38 38 37 35 33 31 28 28 30 30 29 28
2 1 2 3 4 4 6 6 3 4 5 3 4 5 6 1 4 3 7 10 11 16 19 17 27 31 30 33 41 46 46 45 42 40 41 39 40 38 38 37 34 32 31 29 31 31 29 29 27
4 3 2 3 3 4 4 4 3 4 5 7 3 4 3 2 3 4 5 8 10 7 6 10 10 11 25 27 32 43 44 43 40 39 40 43 41 40 39 37 35 32 30 29 30 32 29 28 26
4 2 4 4 4 5 4 3 3 6 6 2 5 6 4 1 3 4 4 3 5 3 4 14 34 39 31 36 36 40 42 42 42 41 41 43 44 41 39 36 32 30 26 28 32 32 29 28 27
4 2 4 4 7 4 2 4 2 0 4 4 7 4 1 5 2 3 3 4 8 5 2 11 21 31 34 35 31 33 39 43 42 42 41 43 39 38 36 30 32 28 27 30 34 33 30 27 25
4 4 8 6 6 4 9 6 5 2 4 7 7 9 5 5 4 3 5 6 6 11 7 3 14 21 30 30 33 34 34 40 42 42 42 35 34 37 30 31 30 29 30 33 35 32 30 26 22
5 7 6 7 11 7 6 5 3 4 9 13 9 3 7 7 7 8 11 10 11 9 12 8 10 14 20 25 27 37 35 27 41 43 40 38 32 36 34 31 29 30 32 29 31 31 23 23 22
4 8 6 5 5 5 5 2 5 9 12 0 6 1 5 8 8 9 10 7 6 9 9 7 9 14 17 24 31 36 44 36 33 41 37 41 34 34 32 32 31 31 26 28 26 27 26 25 22
5 5 5 11 8 7 6 12 10 13 12 5 3 3 5 6 5 5 4 2 7 10 8 9 9 13 18 22 28 41 48 45 38 39 38 42 35 34 35 38 32 29 32 33 31 28 25 24 23
5 5 9 7 10 6 10 10 4 11 4 6 4 3 5 3 3 7 5 3 7 11 9 8 10 13 18 29 43 37 45 47 47 37 38 38 38 40 40 41 35 33 33 32 31 29 25 23 22
2 6 7 8 5 5 9 6 9 6 6 7 6 5 7 5 4 8 6 1 4 8 9 9 6 7 7 12 45 49 44 44 39 40 39 36 41 45 41 42 37 33 33 31 29 27 24 22 21
2 2 6 1 4 1 7 10 6 2 9 11 10 8 8 8 5 8 4 4 4 7 9 8 6 9 10 21 34 41 43 38 33 35 36 40 46 46 44 39 38 35 33 32 29 26 21 20 19
3 10 6 6 3 3 4 8 2 4 8 10 11 10 8 8 5 7 4 4 5 6 10 10 9 14 19 23 26 36 38 38 33 35 38 36 44 44 45 42 37 37 32 32 29 27 23 21 17
8 6 5 7 3 2 7 16 15 8 10 13 12 11 10 10 10 8 5 6 6 7 9 12 13 16 23 25 27 29 29 30 33 33 38 33 43 44 41 37 32 32 27 29 28 25 22 19 19
4 5 6 4 5 3 9 11 17 17 8 11 11 12 12 12 8 8 8 8 8 9 10 14 17 20 24 25 23 21 26 31 29 32 30 31 34 39 33 31 31 31 26 28 28 24 22 17 19
15 13 14 12 9 8 7 13 18 12 9 6 12 13 14 11 10 10 11 11 12 10 10 13 17 21 23 25 21 22 23 26 22 25 35 34 33 29 29 28 29 29 27 26 27 27 22 16 24
16 17 16 15 6 6 7 6 6 3 7 4 7 11 14 15 14 13 13 14 12 14 13 15 19 24 24 25 25 21 19 20 21 28 31 34 34 31 27 29 28 31 28 28 29 28 26 17 25
17 15 14 12 5 7 3 7 7 11 14 9 9 13 15 14 14 13 14 16 16 15 13 16 20 28 27 29 27 31 23 22 20 27 30 31 29 31 26 23 26 27 34 29 29 31 31 22 18
12 8 12 12 9 7 8 5 3 2 10 14 7 13 15 16 17 16 15 17 16 16 17 20 22 21 23 27 32 31 21 20 20 29 31 31 28 27 27 29 33 34 29 29 31 32 33 34 22
2 11 4 2 3 8 10 7 6 5 7 6 4 8 15 17 17 16 18 19 19 17 17 19 23 25 25 24 28 30 26 24 25 28 29 30 31 32 35 36 30 34 31 34 34 32 35 37 37
7 4 2 4 5 7 7 9 13 7 11 10 12 6 12 16 17 17 17 18 22 23 22 21 22 22 29 33 30 32 29 24 23 28 25 29 32 29 30 31 33 32 31 31 29 30 33 36 36
13 14 6 6 5 4 4 6 6 9 9 8 10 9 9 14 17 19 20 21 24 26 26 25 26 26 26 29 31 32 29 26 25 27 26 26 27 29 28 33 31 30 31 31 31 32 34 34 37
6 9 13 6 1 3 4 4 8 7 10 5 8 6 9 13 17 20 20 25 26 27 29 29 28 26 26 28 28 29 31 30 27 26 27 27 28 29 31 34 32 33 34 34 32 34 35 35 39
8 7 4 5 6 10 5 4 6 2 7 7 7 8 6 10 14 15 17 24 26 26 26 26 27 26 25 27 29 30 31 32 31 29 29 28 27 28 28 31 32 32 34 32 32 34 35 35 40
5 12 6 3 4 7 7 5 8 11 11 10 10 5 7 11 14 15 15 20 22 21 25 26 25 27 28 28 29 30 32 32 33 34 33 32 30 29 28 28 30 33 33 36 35 35 36 39 41
3 2 14 10 8 2 5 11 4 10 6 6 10 6 4 8 13 13 13 18 22 24 25 28 28 30 30 31 31 31 31 33 34 37 36 33 36 34 33 29 28 28 31 34 32 36 37 40 40
Wind_Direction
152 145 115 48 234 22 228 223 280 246 240 205 219 217 254 270 234 275 130 194 185 197 190 184 181 170 164 168 172 169 166 162 159 157 154 149 149 146 145 141 138 133 130 127 124 118 117 118 114
133 131 70 93 73 19 323 257 231 230 233 260 221 206 256 270 248 300 280 203 207 192 191 191 186 177 170 169 169 170 167 164 164 157 150 149 150 148 145 142 140 134 132 129 126 122 122 119 116
135 113 94 76 108 263 259 225 258 260 258 229 245 231 254 229 184 258 250 228 207 199 192 194 188 180 171 167 170 169 166 168 163 157 153 150 150 146 143 144 141 135 132 129 127 126 125 121 120
142 54 81 106 226 250 238 271 256 292 233 221 293 260 243 231 176 193 195 256 198 205 204 192 188 184 175 167 167 168 169 169 164 160 156 153 150 145 145 145 139 138 136 132 132 130 126 124 123
64 76 98 131 244 263 254 274 271 280 287 190 182 263 251 207 191 235 258 239 226 220 223 196 188 180 178 172 171 172 169 167 167 165 158 156 150 148 149 146 144 142 144 143 139 136 131 126 125
85 85 153 216 233 243 268 255 251 227 230 175 203 256 251 224 205 242 266 252 249 245 241 246 182 173 181 178 174 174 172 171 164 161 157 158 153 153 151 149 151 152 154 150 143 139 132 129 127
134 140 210 207 256 278 235 173 223 257 251 229 153 233 263 241 250 294 276 263 243 235 239 187 250 168 182 201 195 176 175 170 162 158 156 158 153 153 153 156 158 159 157 153 146 145 138 134 128
120 129 150 226 221 262 239 229 205 233 277 97 171 235 246 163 226 274 287 287 278 301 119 159 178 194 217 195 204 181 176 169 164 158 158 157 152 154 158 161 163 157 158 161 154 148 142 138 134
159 156 216 224 185 245 225 267 182 162 253 222 204 223 276 146 200 299 303 306 301 293 62 173 178 197 201 202 196 184 181 168 160 158 159 153 149 150 160 159 160 155 157 157 154 151 145 140 134
179 192 211 214 207 248 296 252 245 228 231 247 239 227 179 169 195 229 252 277 287 294 280 236 204 190 196 195 191 184 181 166 159 159 160 146 151 153 156 158 156 156 153 152 154 151 148 138 138
180 227 201 233 232 251 264 275 223 220 263 249 249 251 186 203 220 231 238 230 248 258 263 242 210 209 213 204 196 184 177 165 163 158 161 154 153 154 153 155 154 155 155 151 153 155 151 151 148
216 248 221 256 214 172 253 246 252 218 267 295 241 178 180 214 232 245 247 243 222 224 221 240 240 229 218 213 197 181 178 177 164 163 169 159 154 154 153 158 161 158 158 154 160 161 160 154 148
225 244 228 242 254 252 258 252 263 249 246 196 163 142 197 216 238 258 285 197 200 190 208 221 233 241 238 226 214 181 180 181 175 166 164 167 156 159 160 162 163 165 165 166 163 163 165 153 156
203 228 256 272 265 243 257 267 188 270 208 169 172 211 219 239 286 276 263 248 182 191 220 222 238 248 251 236 221 200 179 173 178 171 170 167 166 166 166 166 167 169 165 168 164 167 165 160 156
238 274 285 241 256 251 219 237 226 272 168 196 186 222 244 244 290 287 304 5 221 193 210 205 211 226 233 249 213 188 171 166 165 167 170 168 172 170 170 171 171 171 168 171 167 168 166 161 162
251 213 263 181 178 260 203 275 270 340 190 213 198 208 235 252 256 279 287 261 218 196 192 182 156 147 154 85 127 141 154 154 158 165 171 179 177 173 172 174 173 174 173 172 168 170 169 164 165
224 250 237 297 262 141 223 288 270 181 218 230 210 208 227 249 254 269 256 221 209 197 184 175 161 147 139 123 117 132 146 156 166 169 180 184 180 179 181 178 178 177 176 175 169 175 175 173 171
208 221 227 240 192 120 283 274 288 265 231 237 216 208 217 237 245 241 209 194 192 189 183 172 169 155 152 135 134 133 146 157 173 184 187 186 183 186 187 182 179 177 177 176 174 180 181 182 175
199 221 227 238 225 270 264 281 293 303 244 235 225 214 209 227 233 216 199 178 171 179 176 180 173 167 164 155 142 136 146 164 183 191 185 189 193 190 190 186 185 186 189 181 180 183 187 183 180
233 246 253 282 290 227 285 295 294 284 264 225 214 218 213 206 211 211 205 181 174 173 178 176 184 168 164 159 153 153 158 174 187 190 195 198 186 184 191 193 193 193 195 191 188 195 189 191 185
224 233 248 250 289 270 272 269 282 301 277 216 210 221 216 193 199 206 197 194 173 172 179 172 181 171 165 167 160 155 160 167 178 182 180 182 179 189 205 203 201 204 206 203 202 206 205 193 198
233 222 239 248 263 271 310 289 267 277 275 268 217 204 211 188 199 202 200 186 188 182 176 172 173 172 169 176 170 175 167 171 182 177 176 172 178 183 192 204 208 215 216 213 217 220 217 212 205
240 191 210 230 232 265 250 264 255 228 259 261 253 208 211 190 195 195 200 196 189 183 176 174 172 174 173 173 177 177 172 176 172 176 180 177 181 193 205 216 217 218 224 229 231 228 227 225 218
252 217 226 117 185 245 220 225 268 211 225 259 249 183 202 190 198 195 195 190 186 184 183 176 179 180 180 173 175 182 189 188 181 183 187 183 190 201 210 220 225 239 235 231 235 234 236 236 234
209 194 254 218 205 243 199 199 252 246 252 247 273 263 192 189 192 193 193 192 188 186 186 184 185 186 188 190 190 190 198 200 193 197 197 195 200 205 213 216 220 224 228 235 241 245 244 244 239
206 202 193 220 220 241 165 220 232 237 272 253 263 260 183 194 190 196 195 197 191 190 190 190 192 194 194 195 201 204 203 206 209 209 210 213 211 215 219 226 231 237 240 242 244 248 252 252 254
179 205 217 263 187 276 214 254 284 268 271 222 278 261 208 199 195 198 196 200 193 190 193 195 195 198 200 201 202 206 210 213 216 219 223 226 228 227 229 237 244 248 248 248 251 254 256 256 255
221 157 137 210 236 243 203 223 217 245 268 264 285 265 244 189 195 200 204 206 204 192 189 192 195 198 200 204 208 210 212 214 216 221 225 227 231 232 235 242 246 250 254 257 258 261 262 253 254
183 227 240 225 203 250 260 233 215 224 242 271 280 264 247 191 196 196 208 211 211 200 192 193 194 197 201 204 205 209 211 213 214 220 225 227 230 234 238 241 247 253 257 262 263 265 266 260 256
284 251 222 230 229 246 263 241 205 231 244 243 266 283 262 218 191 186 200 201 203 204 199 200 202 204 203 204 205 210 211 212 214 219 221 223 228 231 235 240 242 245 251 258 269 272 259 253 252